Regional Weather Roundup
Issued by NWS

Home | Current Version | Previous Version | Graphics & Text | Print | Product List | Glossary On
Versions: 1 2 3 4 5 6 7 8 9 10 11 12 13 14 15 16 17 18 19 20 21 22 23 24 25 26 27 28 29 30 31 32 33 34 35 36 37 38 39 40 41 42 43 44 45 46 47 48 49 50
000
ASUS43 KLOT 261402
RWRIL

ILLINOIS REGIONAL WEATHER ROUNDUP
NATIONAL WEATHER SERVICE CHICAGO/ROMEOVILLE IL
900 AM CDT SUN APR 26 2015

NOTE: "FAIR" INDICATES FEW OR NO CLOUDS BELOW 12,000 FEET WITH NO
SIGNIFICANT WEATHER AND/OR OBSTRUCTIONS TO VISIBILITY.

* THESE STATIONS ARE NOT UNDER NWS QUALITY CONTROL. THEY ALSO MAY NOT
  REPORT WEATHER SUCH AS PRECIPITATION OR FOG.

ILZ001-002-007-009-015-016-024-261500-
NORTHWEST ILLINOIS

CITY           SKY/WX    TMP DP  RH WIND       PRES   REMARKS
MOLINE         SUNNY     46  28  49 E12       30.02R
STERLING*      SUNNY     46  30  53 NE12      30.03R
$$

ILZ003-004-008-010-011-017-018-261500-
NORTH CENTRAL ILLINOIS

CITY           SKY/WX    TMP DP  RH WIND       PRES   REMARKS
ROCKFORD       SUNNY     47  28  47 NE9       30.06R
$$

ILZ005-006-012>014-019>023-261500-
NORTHEAST ILLINOIS

CITY           SKY/WX    TMP DP  RH WIND       PRES   REMARKS
CHICAGO-OHARE  SUNNY     46  29  51 NE10      30.01R
CHICAGO-MIDWAY SUNNY     48  30  49 NE16      30.01R
AURORA         SUNNY     46  29  51 NE10      30.02R
WAUKEGAN       SUNNY     46  30  53 N12       30.01R
DUPAGE AIRPORT SUNNY     46  31  55 NE10      30.01R
WHEELING       SUNNY     46  28  49 NE10      30.03R
NORTHERLY ISL    N/A     43  32  65 N12         N/A
$$

LMZ740>746-261500-
SOUTHERN LAKE MICHIGAN

STATION/POSITION SKY/WX   TEMP    WIND        PRES    VSBY  WAVE
                          AIR SEA DIR/SP/G                  HT/PER
                          (F)     (DEG/KT/KT) (MB)    (MI)  (FT/S)
HARRISON CRIB              39      10/ 13/ 15   N/A
BURNHAM HARBOR             42      20/  9/ 16   N/A
CALUMET HARBOR             42      20/  8/ 13   N/A
BURNS HARBOR               43      50/ 14/ 16 1015.6R
MICHIGAN CITY              42      30/ 14/ 16   N/A
MICHIGAN CITY 6N           42 45   60/ 12/ 14   N/A           4/ 6
$$

ILZ025>027-034>036-040-047-049-050-058-095>099-261500-
WEST-CENTRAL ILLINOIS

CITY           SKY/WX    TMP DP  RH WIND       PRES   REMARKS
QUINCY         CLOUDY    46  34  62 N7        29.98R
$$

ILZ028>032-037-038-041>044-048-051>054-059>061-261500-
CENTRAL ILLINOIS

CITY           SKY/WX    TMP DP  RH WIND       PRES   REMARKS
DECATUR        SUNNY     48  38  68 NE9       29.95R
PEORIA         SUNNY     48  32  53 E13G20    29.98R
SPRINGFIELD    SUNNY     49  38  65 N9        29.97R
TAYLORVILLE    NOT AVBL
$$

ILZ033-039-045-046-055>057-062-063-261500-
EAST-CENTRAL ILLINOIS

CITY           SKY/WX    TMP DP  RH WIND       PRES   REMARKS
CHAMPAIGN      SUNNY     47  38  71 N9        29.94R
MATTOON        SUNNY     48  35  60 NE15      29.92R
$$

ILZ079-100>102-261500-
SOUTHWEST ILLINOIS

CITY           SKY/WX    TMP DP  RH WIND       PRES   REMARKS
ALTON          SUNNY     48  36  61 NE13G21   29.93R
BELLEVILLE     SUNNY     51  42  71 NE7       29.91R
CAHOKIA*       MOSUNNY   51  40  65 NE10      29.93R
$$

ILZ064>066-069>071-074>076-080>082-084>086-088>090-092>094-261500-
SOUTH-CENTRAL ILLINOIS

CITY           SKY/WX    TMP DP  RH WIND       PRES   REMARKS
CARBONDALE     CLOUDY    49  42  77 N8        29.88R
MARION         CLOUDY    50  45  81 N16       29.88R
MT. VERNON     PTSUNNY   48  36  61 NE9       29.89R
$$

ILZ067-068-072-073-078-083-087-091-261500-
SOUTHEAST ILLINOIS

CITY           SKY/WX    TMP DP  RH WIND       PRES   REMARKS
LAWRENCEVILLE  MOSUNNY   50  37  61 NE16      29.89R
$$

ABBREVIATIONS USED IN REMARKS
   TC - TEMPERATURE IN CELSIUS
  WCI - WIND CHILL INDEX
   HX - HEAT INDEX
  VSB - VISIBILITY
$$




USA.gov is the U.S. government's official web portal to all federal, state and local government web resources and services.